Statesville, NC

10:14 PM EST on February 19, 2017 (GMT -0500)
Statesville Municipal

Weather History for KSVH - October, 2012

Change the Weather History Date:

Tuesday, October 2, 2012

  Actual Average (KHKY) Record (KHKY)
Temperature  
Mean Temperature 69 °F -  
Max Temperature 78 °F 76 °F 92 °F (1954)
Min Temperature 60 °F 52 °F 37 °F (1974)
Cooling Degree Days 4    
Growing Degree Days 19 (Base 50)    
Moisture  
Dew Point 64 °F    
Average Humidity 88    
Maximum Humidity 100    
Minimum Humidity 69    
Precipitation  
Precipitation 0.06 in - - ()
Sea Level Pressure  
Sea Level Pressure 29.87 in    
Wind  
Wind Speed 4 mph (ESE)    
Max Wind Speed 9 mph    
Max Gust Speed -    
Visibility 6 miles    
Events Fog , Rain    
Averages and records for this station are not official NWS values.
T = Trace of Precipitation, MM = Missing Value Source: NWS Daily Summary

Daily Weather History Graph

Daily Weather History Graph

Search for Another Location

Airport or City:

Trip Planner

Search our weather history database for the weather conditions in past years. The results will help you decide how hot, cold, wet, or windy it might be!

Date:

Astronomy

Oct. 02, 2012 Rise Set
Actual Time 7:20 AM EDT 7:05 PM EDT
Civil Twilight 6:54 AM EDT 7:30 PM EDT
Nautical Twilight 6:24 AM EDT 8:00 PM EDT
Astronomical Twilight 5:55 AM EDT 8:30 PM EDT
Moon 8:24 PM EDT (10/2) 9:39 AM EDT (10/2)
Length of Visible Light 12h 36m
Length of Day
11h 45m
Waning Gibbous, 94% of the Moon is Illuminated
Oct 2
Waning Gibbous
Oct 8
Last Quarter
Oct 15
New
Oct 21
First Quarter
Oct 29
Full

Hourly Weather History & Observations

Time (EDT) Temp. Dew Point Humidity Pressure Visibility Wind Dir Wind Speed Gust Speed Precip Events Conditions
12:15 AM 60.8 °F 59.0 °F 94% 29.84 in 0.5 mi NE 4.6 mph - N/A Rain Rain
12:35 AM 60.8 °F 59.0 °F 94% 29.84 in 0.5 mi NE 5.8 mph - N/A Rain Light Rain
12:55 AM 60.8 °F 59.0 °F 94% 29.84 in 0.5 mi NE 4.6 mph - N/A   Light Drizzle
1:35 AM 60.8 °F 59.0 °F 94% 29.83 in 0.5 mi NNE 4.6 mph - N/A   Drizzle
1:55 AM 60.8 °F 59.0 °F 94% 29.82 in 0.5 mi NNE 6.9 mph - N/A   Heavy Drizzle
2:15 AM 60.8 °F 59.0 °F 94% 29.81 in 0.5 mi NE 8.1 mph - N/A Rain Rain
2:35 AM 60.8 °F 60.8 °F 100% 29.82 in 0.5 mi NE 5.8 mph - 0.01 in Rain Light Rain
2:55 AM 60.8 °F 60.8 °F 100% 29.81 in 0.8 mi ENE 6.9 mph - 0.02 in Rain Light Rain
3:15 AM 60.8 °F 60.8 °F 100% 29.81 in 0.2 mi ENE 5.8 mph - N/A Rain Rain
4:15 AM 62.6 °F 60.8 °F 94% 29.81 in 0.5 mi ENE 4.6 mph - N/A   Light Drizzle
4:35 AM 62.6 °F 60.8 °F 94% 29.80 in 0.5 mi ENE 5.8 mph - N/A Rain Light Rain
4:55 AM 62.6 °F 60.8 °F 94% 29.80 in 0.5 mi NE 4.6 mph - 0.01 in   Light Drizzle
5:15 AM 62.6 °F 62.6 °F 100% 29.80 in 0.5 mi NE 3.5 mph - N/A Fog Fog
5:35 AM 62.6 °F 62.6 °F 100% 29.80 in 0.5 mi Calm Calm - N/A Rain Rain
5:55 AM 62.6 °F 62.6 °F 100% 29.80 in 0.5 mi Calm Calm - 0.01 in Rain Light Rain
6:15 AM 62.6 °F 62.6 °F 100% 29.80 in 0.5 mi Calm Calm - N/A Rain Light Rain
6:55 AM 62.6 °F 62.6 °F 100% 29.80 in 0.5 mi NNE 4.6 mph - N/A Fog Fog
7:15 AM 64.4 °F 62.6 °F 94% 29.81 in 0.5 mi NNE 3.5 mph - N/A Fog Fog
7:35 AM 64.4 °F 62.6 °F 94% 29.81 in 0.2 mi Calm Calm - N/A Fog Fog
7:55 AM 64.4 °F 62.6 °F 94% 29.83 in 0.2 mi Calm Calm - 0.01 in Fog Fog
8:15 AM 64.4 °F 62.6 °F 94% 29.83 in 0.2 mi Calm Calm - N/A Rain Light Rain
8:35 AM 64.4 °F 62.6 °F 94% 29.83 in 0.2 mi NNE 3.5 mph - N/A Fog Fog
8:55 AM 64.4 °F 64.4 °F 100% 29.83 in 0.2 mi NNE 4.6 mph - N/A Fog Fog
9:15 AM 66.2 °F 64.4 °F 94% 29.83 in 0.5 mi Calm Calm - N/A Fog Fog
9:55 AM 68.0 °F 68.0 °F 100% 29.84 in 1.5 mi Calm Calm - N/A   Overcast
10:15 AM 69.8 °F 69.8 °F 100% 29.85 in 3.0 mi Calm Calm - N/A   Overcast
10:35 AM 71.6 °F 69.8 °F 94% 29.84 in 4.0 mi East 3.5 mph - N/A   Mostly Cloudy
10:55 AM 73.4 °F 69.8 °F 88% 29.84 in 10.0 mi South 8.1 mph - N/A   Scattered Clouds
11:15 AM 73.4 °F 69.8 °F 88% 29.85 in 5.0 mi SSW 3.5 mph - 0.01 in Rain Heavy Rain
12:15 PM 73.4 °F 71.6 °F 94% 29.86 in 10.0 mi WSW 4.6 mph - N/A   Mostly Cloudy
12:35 PM 73.4 °F 69.8 °F 88% 29.86 in 10.0 mi WSW 5.8 mph - N/A   Mostly Cloudy
12:55 PM 75.2 °F 69.8 °F 83% 29.86 in 10.0 mi SSW 9.2 mph - N/A   Scattered Clouds
1:15 PM 77.0 °F 68.0 °F 74% 29.85 in 10.0 mi SSW 6.9 mph - N/A   Scattered Clouds
1:35 PM 77.0 °F 68.0 °F 74% 29.85 in 10.0 mi South 8.1 mph - N/A   Clear
1:55 PM 77.0 °F 68.0 °F 74% 29.85 in 10.0 mi SW 3.5 mph - N/A   Mostly Cloudy
2:15 PM 77.0 °F 68.0 °F 74% 29.85 in 10.0 mi South 3.5 mph - N/A   Scattered Clouds
2:35 PM 78.8 °F 68.0 °F 69% 29.85 in 10.0 mi South 4.6 mph - N/A   Scattered Clouds
2:55 PM 77.0 °F 68.0 °F 74% 29.84 in 10.0 mi South 5.8 mph - N/A   Mostly Cloudy
3:15 PM 77.0 °F 68.0 °F 74% 29.85 in 10.0 mi SE 4.6 mph - N/A   Mostly Cloudy
3:35 PM 77.0 °F 68.0 °F 74% 29.85 in 10.0 mi SE 5.8 mph - N/A   Overcast
3:55 PM 77.0 °F 68.0 °F 74% 29.85 in 10.0 mi Calm Calm - N/A   Mostly Cloudy
4:15 PM 77.0 °F 68.0 °F 74% 29.85 in 10.0 mi SSW 3.5 mph - N/A   Overcast
4:35 PM 77.0 °F 68.0 °F 74% 29.86 in 10.0 mi SSW 4.6 mph - N/A   Mostly Cloudy
4:55 PM 77.0 °F 68.0 °F 74% 29.87 in 10.0 mi South 4.6 mph - N/A   Mostly Cloudy
5:15 PM 77.0 °F 66.2 °F 69% 29.87 in 10.0 mi SSW 5.8 mph - N/A   Mostly Cloudy
5:55 PM 75.2 °F 64.4 °F 69% 29.88 in 10.0 mi SSW 3.5 mph - N/A   Scattered Clouds
6:15 PM 75.2 °F 64.4 °F 69% 29.89 in 10.0 mi Calm Calm - N/A   Scattered Clouds
6:35 PM 75.2 °F 64.4 °F 69% 29.90 in 10.0 mi Calm Calm - N/A   Clear
6:55 PM 73.4 °F 64.4 °F 73% 29.90 in 10.0 mi Calm Calm - N/A   Clear
7:15 PM 71.6 °F 64.4 °F 78% 29.91 in 10.0 mi Calm Calm - N/A   Clear
7:35 PM 69.8 °F 64.4 °F 83% 29.92 in 10.0 mi Calm Calm - N/A   Scattered Clouds
7:55 PM 69.8 °F 64.4 °F 83% 29.92 in 10.0 mi Calm Calm - N/A   Clear
8:15 PM 69.8 °F 64.4 °F 83% 29.93 in 10.0 mi Calm Calm - N/A   Clear
8:35 PM 68.0 °F 64.4 °F 88% 29.94 in 10.0 mi Calm Calm - N/A   Clear
8:55 PM 69.8 °F 62.6 °F 78% 29.94 in 10.0 mi Calm Calm - N/A   Clear
9:15 PM 68.0 °F 62.6 °F 83% 29.95 in 10.0 mi Calm Calm - N/A   Clear
9:35 PM 64.4 °F 62.6 °F 94% 29.96 in 10.0 mi Calm Calm - N/A   Clear
9:55 PM 64.4 °F 62.6 °F 94% 29.97 in 7.0 mi Calm Calm - N/A   Clear
10:15 PM 62.6 °F 62.6 °F 100% 29.97 in 4.0 mi Calm Calm - N/A   Clear
10:35 PM 62.6 °F 60.8 °F 94% 29.98 in 4.0 mi Calm Calm - N/A   Clear
10:55 PM 62.6 °F 60.8 °F 94% 29.98 in 10.0 mi WSW 4.6 mph - N/A   Clear
11:15 PM 66.2 °F 62.6 °F 88% 29.98 in 10.0 mi Calm Calm - N/A   Clear
11:35 PM 64.4 °F 62.6 °F 94% 29.98 in 10.0 mi WSW 3.5 mph - N/A   Clear
11:55 PM 64.4 °F 62.6 °F 94% 29.98 in 10.0 mi Calm Calm - N/A   Clear